Location: Spruce Knob
(38.6995°N, 79.5330°W)
Time: 00:22:12
(UTC-05:00)

Hubble Space Telescope - Visible Passes

Search period start: 10 December 2023 00:00
Search period end: 20 December 2023 00:00
Orbit: 518 x 522 km, 28.5° (Epoch: 09 December)

Date Brightness Start Highest point End Pass type
(mag) Time Alt. Az. Time Alt. Az. Time Alt. Az.
17 Dec 3.6 06:56:24 10° S 06:58:02 12° SSE 06:59:40 10° SE visible
18 Dec 3.5 06:39:27 10° SSW 06:41:27 13° SSE 06:43:26 10° SE visible
19 Dec 3.3 06:22:36 10° SSW 06:24:51 15° SSE 06:27:07 10° SE visible
